[[{"header":{"parameterUnit":"m.s-1","parameterCategory":1,"la1":30.2991,"la2":30.254,"lo1":-89.0895,"lo2":-89.0444,"dy":0.0017,"dx":0.0017,"nx":28,"ny":28,"refTime":"2025-06-05T03:00:00:Z","depth":0,"parameterNumber":2,"parameterNumberName":"U-component_of_WINDS"},"data":[0,0,0,0,0,0,0,0,0,0,0,0,0,0,0,0,0,0,0,0,0,0,0,0,0,0,0,0,0,0,0,0,0,0,0,0,0,0,0,0,0,0,0,0,0,0,0,0,0,0,0,0,0,0,0,0,0,0,1.925,1.925,0,1.9293,1.9293,1.9294,1.9327,1.9327,1.9327,1.9327,1.9371,1.9372,1.9373,0,0,0,0,0,0,0,0,0,0,0,0,0,1.9198,1.9199,1.925,1.925,1.9251,1.9293,1.9293,1.9294,1.9326,1.9327,1.9327,1.9328,1.9371,1.9372,1.9373,0,0,0,0,0,0,0,0,0,0,0,0,0,1.9229,1.9199,1.925,1.9272,1.9275,1.9293,1.9293,1.9294,1.9326,1.9327,1.9327,1.9328,1.9371,1.9372,1.9373,1.9372,0,0,1.9377,1.9378,0,0,0,0,0,0,0,0,1.9227,1.923,1.9268,1.9271,1.9273,1.9305,1.9291,1.932,1.9326,1.9307,1.9327,1.9328,1.9349,1.9352,1.9359,1.9374,1.9376,1.9377,1.9378,1.9379,1.9379,0,0,0,0,0,0,0,1.9225,1.9229,1.9267,1.9269,1.9272,1.9281,1.9286,1.9297,1.9325,1.9308,1.9311,1.9316,1.935,1.9358,1.936,1.9377,1.9377,1.9379,1.9379,1.938,1.9396,1.9396,0,0,0,0,0,0,1.9219,1.9227,1.9265,1.9268,1.9251,1.9281,1.9287,1.9294,1.9325,1.933,1.9315,1.9317,1.9355,1.9359,1.9362,1.9364,1.9379,1.938,1.9381,1.9396,1.9396,1.9395,0,0,0,0,0,0,1.9218,1.9222,1.9264,1.9248,1.9254,1.9282,1.929,1.9295,1.9302,1.933,1.9335,1.9317,1.9356,1.936,1.937,1.9365,1.9381,1.9382,1.9397,1.9396,1.9396,1.9366,0,0,0,0,0,0,1.9216,1.9221,1.922,1.9248,1.9255,1.927,1.929,1.9295,1.9304,1.9307,1.9333,1.9338,1.9356,1.9368,1.9371,1.9368,1.9383,1.9397,1.9396,1.9396,1.9368,1.9365,1.9362,0,0,0,0,0,1.9214,1.921,1.922,1.9225,1.9254,1.927,1.9274,1.9295,1.9304,1.9304,1.9322,1.9337,1.9366,1.9368,1.9373,1.9369,1.9397,1.9397,1.9396,1.9369,1.9365,1.9362,0,0,0,0,0,0,1.918,1.9214,1.9225,1.923,1.9247,1.9275,1.9275,1.929,1.9305,1.9307,1.9333,1.9338,1.9346,1.9359,1.9361,1.9371,1.9384,1.9384,1.9362,1.9359,1.9356,1.9352,1.9384,0,0,0,0,0,1.9174,1.9183,1.9212,1.9213,1.9221,1.9247,1.9254,1.927,1.9288,1.9295,1.9314,1.9332,1.9345,1.9353,1.9366,1.9371,1.9377,1.9371,1.9368,1.9366,1.9365,1.9369,1.9367,1.9393,1.9393,1.9393,0,0,1.9159,1.9179,1.9183,1.9207,1.9222,1.9232,1.9252,1.9261,1.9269,1.9297,1.9307,1.9322,1.9344,1.9351,1.9355,1.9362,1.936,1.9365,1.9362,1.9363,1.9368,1.9366,1.9364,1.9392,1.9392,1.9392,0,0,1.9138,1.9154,1.9157,1.9172,1.9195,1.9212,1.9213,1.924,1.9251,1.9263,1.9284,1.9294,1.9316,1.9331,1.9341,1.933,1.9345,1.9334,1.9319,1.9323,1.9321,1.9319,1.9315,1.9314,1.9333,1.9333,1.9333,0,1.9117,1.9132,1.9157,1.9165,1.9176,1.9203,1.9207,1.922,1.9246,1.9253,1.9261,1.9291,1.9307,1.9319,1.9316,1.9324,1.9326,1.933,1.9319,1.9318,1.9317,1.9313,1.9312,1.9332,1.9332,1.9332,1.9332,0,1.9105,1.9116,1.9116,1.9141,1.9152,1.9158,1.9185,1.9193,1.9209,1.9226,1.9239,1.926,1.9279,1.9283,1.9298,1.9298,1.9302,1.9314,1.9327,1.9312,1.9309,1.9308,1.9329,1.933,1.933,1.9331,0,0,1.906,1.9102,1.9101,1.9114,1.9143,1.9151,1.916,1.918,1.9187,1.9205,1.9213,1.9233,1.9245,1.9257,1.9274,1.9278,1.9269,1.9291,1.9292,1.9285,1.9271,1.9261,1.9259,1.928,1.928,1.928,1.9269,0,1.9042,1.9058,1.9083,1.9091,1.9102,1.913,1.9138,1.9157,1.9174,1.9187,1.9207,1.922,1.9235,1.9243,1.9248,1.9268,1.9266,1.927,1.9288,1.9288,1.928,1.9257,1.9245,1.9234,1.9268,1.9268,1.9268,0,1.9023,1.904,1.905,1.9081,1.9086,1.9092,1.9113,1.9125,1.9148,1.9161,1.9176,1.9196,1.9208,1.9221,1.9238,1.924,1.925,1.9261,1.9261,1.9262,1.9276,1.9257,1.9231,1.9229,1.9267,1.9267,1.9267,0,1.8988,1.9015,1.9024,1.9035,1.907,1.9074,1.909,1.9114,1.9125,1.9144,1.9151,1.9171,1.9182,1.9198,1.9223,1.923,1.9238,1.9253,1.9249,1.9248,1.9247,1.9246,1.9222,1.9255,1.9255,1.9255,1.9255,0,1.8965,1.8969,1.901,1.9015,1.9022,1.9052,1.9058,1.9076,1.9098,1.9108,1.9134,1.9144,1.9177,1.9191,1.9211,1.9223,1.9228,1.9238,1.9243,1.9235,1.9234,1.924,1.9241,1.9255,1.9255,1.9255,1.9255,0,1.8925,1.8953,1.8965,1.8999,1.9008,1.9012,1.9041,1.9049,1.907,1.9083,1.9088,1.912,1.9138,1.9165,1.9191,1.9205,1.9213,1.9222,1.9205,1.9208,1.9202,1.9202,1.918,1.9178,1.9213,1.9213,1.9213,0,1.8907,1.8912,1.8948,1.8957,1.8972,1.8986,1.8998,1.9029,1.904,1.9069,1.9073,1.9094,1.9111,1.9139,1.9165,1.9186,1.9195,1.9186,1.9198,1.919,1.9194,1.9193,1.9194,1.9182,1.9182,1.9181,1.9181,0,1.8873,1.8887,1.8903,1.8925,1.8939,1.8958,1.8978,1.8984,1.9019,1.9031,1.9051,1.9064,1.9093,1.9113,1.9138,1.9154,1.9174,1.9178,1.9178,1.9168,1.9158,1.9163,1.9196,1.9177,1.9177,1.9178,1.9178,1.9178,1.8843,1.8849,1.8876,1.8894,1.8913,1.8932,1.8941,1.8964,1.8981,1.9006,1.9024,1.9042,1.9069,1.9105,1.9121,1.9137,1.9144,1.9145,1.9144,1.9144,1.9141,1.9157,1.9141,1.9141,1.9142,1.9142,1.9142,0,1.8809,1.8829,1.8845,1.8873,1.8888,1.8907,1.8931,1.8942,1.8958,1.8982,1.9,1.9023,1.9044,1.9073,1.9097,1.9104,1.9113,1.9109,1.9107,1.9111,1.9132,1.913,1.9101,1.9101,1.9101,1.9101,1.9101,1.9101,1.8793,1.8804,1.8823,1.8845,1.8865,1.8883,1.8896,1.8914,1.8933,1.8958,1.8976,1.8996,1.9022,1.9048,1.9069,1.9077,1.9084,1.9077,1.9087,1.9106,1.911,1.9113,1.9111,1.9078,1.9078,1.9065,1.9065,1.9065]},{"header":{"parameterUnit":"m.s-1","parameterCategory":1,"la1":30.2991,"la2":30.254,"lo1":-89.0895,"lo2":-89.0444,"dy":0.0017,"dx":0.0017,"nx":28,"ny":28,"refTime":"2025-06-05T03:00:00:Z","depth":0,"parameterNumber":3,"parameterNumberName":"V-component_of_WINDS"},"data":[0,0,0,0,0,0,0,0,0,0,0,0,0,0,0,0,0,0,0,0,0,0,0,0,0,0,0,0,0,0,0,0,0,0,0,0,0,0,0,0,0,0,0,0,0,0,0,0,0,0,0,0,0,0,0,0,0,0,4.1495,4.1496,0,4.1579,4.1579,4.158,4.1614,4.1613,4.1613,4.1613,4.1691,4.1693,4.1695,0,0,0,0,0,0,0,0,0,0,0,0,0,4.1354,4.1357,4.1495,4.1496,4.1497,4.1578,4.158,4.1581,4.1614,4.1613,4.1613,4.1613,4.169,4.1693,4.1696,0,0,0,0,0,0,0,0,0,0,0,0,0,4.1424,4.1358,4.1495,4.1523,4.1527,4.1578,4.158,4.1581,4.1614,4.1613,4.1613,4.1613,4.1689,4.1693,4.1696,4.1722,0,0,4.1706,4.1708,0,0,0,0,0,0,0,0,4.142,4.1429,4.1518,4.1521,4.1525,4.1586,4.1559,4.1628,4.1614,4.158,4.1613,4.1613,4.1656,4.1662,4.1678,4.1726,4.1729,4.1706,4.1709,4.171,4.1711,0,0,0,0,0,0,0,4.1415,4.1426,4.1528,4.1519,4.1524,4.1529,4.1539,4.1572,4.1618,4.1583,4.1586,4.1596,4.1657,4.1674,4.168,4.1731,4.1706,4.1709,4.1711,4.1713,4.1803,4.1803,0,0,0,0,0,0,4.1407,4.1422,4.1525,4.153,4.1471,4.1532,4.1543,4.1566,4.1618,4.1626,4.1596,4.1597,4.1669,4.1676,4.1683,4.1717,4.171,4.1713,4.1715,4.1802,4.1803,4.1803,0,0,0,0,0,0,4.1404,4.1416,4.1522,4.1477,4.1491,4.1535,4.1561,4.1568,4.1585,4.1628,4.1635,4.1606,4.1669,4.1678,4.1712,4.172,4.1715,4.1718,4.1802,4.1802,4.1803,4.1785,0,0,0,0,0,0,4.14,4.1415,4.1427,4.1477,4.1493,4.1553,4.1561,4.157,4.1592,4.1594,4.1639,4.1646,4.1669,4.1707,4.1716,4.1724,4.172,4.1801,4.1802,4.1803,4.1785,4.1784,4.1784,0,0,0,0,0,4.1395,4.1417,4.1428,4.144,4.151,4.1553,4.1562,4.1591,4.1593,4.1604,4.1631,4.1644,4.1717,4.1711,4.172,4.173,4.1801,4.1802,4.1803,4.1785,4.1784,4.1784,0,0,0,0,0,0,4.1365,4.1425,4.1437,4.1477,4.151,4.1559,4.1575,4.159,4.1621,4.1622,4.1654,4.1663,4.1695,4.1716,4.1707,4.1757,4.176,4.1763,4.1743,4.1743,4.1743,4.1737,4.1723,0,0,0,0,0,4.1364,4.1396,4.1445,4.1476,4.1492,4.153,4.155,4.157,4.1604,4.1617,4.1647,4.1677,4.1707,4.1726,4.1756,4.1788,4.1797,4.1799,4.1798,4.1798,4.18,4.1817,4.1818,4.1806,4.1806,4.1806,0,0,4.136,4.1397,4.1415,4.1471,4.1499,4.1529,4.1542,4.1573,4.1595,4.1621,4.1657,4.1679,4.1715,4.1748,4.1764,4.1766,4.1805,4.1799,4.1798,4.1801,4.1818,4.1819,4.182,4.1806,4.1806,4.1806,0,0,4.137,4.1401,4.143,4.1458,4.1501,4.1526,4.1533,4.1579,4.1596,4.1632,4.1652,4.1677,4.1728,4.1752,4.1772,4.1789,4.1801,4.1797,4.1796,4.1812,4.1813,4.1814,4.1819,4.1821,4.1799,4.1799,4.1799,0,4.1359,4.1409,4.1442,4.1473,4.1496,4.1523,4.155,4.1575,4.1624,4.1638,4.164,4.1705,4.1731,4.1769,4.1773,4.1788,4.1795,4.1793,4.181,4.1812,4.1813,4.1818,4.182,4.1798,4.1798,4.1798,4.1798,0,4.1394,4.1427,4.1444,4.1494,4.1519,4.1548,4.1582,4.1603,4.1619,4.1643,4.1678,4.171,4.1747,4.1757,4.1773,4.1797,4.1798,4.1805,4.1808,4.1813,4.1818,4.1821,4.1797,4.1797,4.1797,4.1798,0,0,4.1388,4.1455,4.1461,4.1484,4.1532,4.1557,4.1586,4.1624,4.164,4.1672,4.1696,4.1738,4.1745,4.1766,4.1785,4.1799,4.1809,4.1804,4.1805,4.1803,4.1836,4.1831,4.1833,4.1818,4.1818,4.1819,4.1833,0,4.1404,4.146,4.149,4.1532,4.1562,4.1587,4.1612,4.1643,4.1665,4.1692,4.1715,4.1745,4.1752,4.1765,4.178,4.1805,4.1816,4.1804,4.1838,4.1838,4.1828,4.1836,4.1831,4.1843,4.1836,4.1836,4.1836,0,4.143,4.1465,4.1511,4.1555,4.1569,4.1591,4.1628,4.1654,4.1688,4.1703,4.1727,4.1745,4.1773,4.1774,4.1812,4.1803,4.1818,4.1832,4.1833,4.1837,4.1838,4.184,4.1848,4.185,4.184,4.184,4.184,0,4.1421,4.1478,4.1513,4.1531,4.1584,4.1599,4.1621,4.1655,4.1676,4.1706,4.172,4.1752,4.177,4.1793,4.1818,4.1817,4.1853,4.1857,4.1865,4.1864,4.1872,4.1871,4.1882,4.1881,4.1881,4.1881,4.1881,0,4.1435,4.1462,4.151,4.1531,4.1561,4.1593,4.1621,4.1645,4.1675,4.1699,4.1721,4.1743,4.1775,4.18,4.1819,4.1847,4.1855,4.1866,4.1871,4.1864,4.1863,4.1875,4.1875,4.1882,4.1882,4.1882,4.1882,0,4.143,4.1463,4.1503,4.155,4.1562,4.1582,4.1621,4.1641,4.1664,4.1695,4.1703,4.1739,4.1769,4.1797,4.1836,4.185,4.1877,4.1884,4.1867,4.187,4.1876,4.1875,4.1895,4.1899,4.1896,4.1896,4.1896,0,4.1437,4.1459,4.1509,4.1528,4.1551,4.1581,4.1602,4.1634,4.1654,4.1695,4.1709,4.1742,4.1769,4.1816,4.1844,4.1873,4.188,4.1885,4.1885,4.1877,4.188,4.1878,4.188,4.1885,4.1885,4.1885,4.1884,0,4.1446,4.1462,4.1494,4.1531,4.1557,4.1587,4.1617,4.163,4.1667,4.1688,4.1721,4.1743,4.1784,4.1815,4.1848,4.1867,4.1881,4.1884,4.1888,4.1881,4.1871,4.1876,4.1866,4.1884,4.1884,4.1884,4.1884,4.1884,4.1447,4.1468,4.1506,4.154,4.1567,4.1594,4.1616,4.1642,4.1671,4.1709,4.1724,4.1757,4.1788,4.1835,4.1854,4.1878,4.1881,4.1886,4.1887,4.1888,4.1886,4.1867,4.1884,4.1884,4.1884,4.1884,4.1884,0,4.1457,4.1483,4.1515,4.1558,4.1584,4.1597,4.1631,4.1651,4.168,4.171,4.1737,4.1773,4.1803,4.1833,4.1864,4.1878,4.1885,4.1885,4.1884,4.1888,4.1882,4.1876,4.1879,4.1879,4.1879,4.1879,4.1879,4.1878,4.1466,4.1501,4.152,4.1567,4.1592,4.1626,4.1644,4.1669,4.1693,4.1733,4.1759,4.178,4.1809,4.1842,4.1869,4.1877,4.1887,4.1885,4.1894,4.1888,4.1888,4.1889,4.1883,4.1887,4.1887,4.1898,4.1898,4.1898]}]]